Flag for Philippines Weather past 2 weeks in Mabalacat, Philippines

Now
72 °F

Passing clouds.


Feels Like: 71 °F
Forecast: 72 / 84 °F
Wind: 8 mph from Northwest

Location: Clarkfield Pampanga International Airport

Current Time: Dec 19, 2014 at 12:39:38 AM

Latest Report: Dec 19, 2014 at 12:00 AM


Visibility: N/A

Pressure: 30.04 "Hg

Humidity: 83%

Dew point: 66 °F

Location of MabalacatLocation

Historic Weather in Mabalacat — Graph

°F

Mabalacat temperature yesterday

Maximum temperature yesterday: 82 °F (at 12:00 PM)
Minimum temperature yesterday: 72 °F (at 1:00 AM)
Average temperature yesterday: 76 °F

Past Weeks' High & Low Weather Summary

 TemperatureHumidityPressure
High90 °F (Dec 5, 1:00 PM)100% (Dec 5, 1:00 AM)30.07 "Hg (Dec 5, 1:00 AM)
Low72 °F (Dec 7, 3:00 AM)43% (Dec 7, 1:00 PM)29.71 "Hg (Dec 8, 2:00 PM)
Average79 °F78%29.91 "Hg
* Reported Dec 3 11:00 PM — Dec 18 11:00 PM, Mabalacat, Weather by CustomWeather, © 2014

Note: Actual official high and low records may vary slightly from our data, if they occured in-between our weather recording intervals... More about our weather records

Advertising

Mabalacat weather history for previous 24 hours

 ConditionsComfort  
Time TempWeatherWind HumidityBarometerVisibility
11:00 PM
Dec 18
72 °FPassing clouds.9 mph83%30.04 "HgN/A
10:00 PM72 °FPassing clouds.9 mph83%30.07 "HgN/A
9:00 PM72 °FPassing clouds.7 mph83%30.07 "HgN/A
8:00 PM73 °FPassing clouds.5 mph78%30.04 "HgN/A
7:00 PM73 °FPassing clouds.7 mph83%30.04 "HgN/A
6:00 PM77 °FPassing clouds.3 mph74%30.01 "HgN/A
5:00 PM81 °FPartly sunny.6 mph62%29.98 "HgN/A
4:00 PM81 °FPartly sunny.12 mph58%29.98 "HgN/A
3:00 PM81 °FBroken clouds.9 mph58%29.95 "HgN/A
2:00 PM82 °FBroken clouds.12 mph51%29.98 "HgN/A
1:00 PM82 °FBroken clouds.9 mph51%29.98 "HgN/A
12:00 PM82 °FBroken clouds.9 mph51%30.01 "HgN/A
11:00 AM81 °FPartly sunny.8 mph58%30.04 "HgN/A
10:00 AM81 °FPartly sunny.9 mph58%30.07 "HgN/A
9:00 AM77 °FPartly sunny.8 mph65%30.07 "HgN/A
8:00 AM75 °FPartly sunny.6 mph69%30.07 "HgN/A
7:00 AM72 °FPartly sunny.7 mph78%30.04 "HgN/A
6:00 AM72 °FPassing clouds.7 mph73%30.01 "HgN/A
5:00 AM72 °FPassing clouds.9 mph73%30.01 "HgN/A
4:00 AM72 °FPassing clouds.9 mph73%29.98 "HgN/A
3:00 AM72 °FPassing clouds.8 mph73%29.98 "HgN/A
2:00 AM72 °FPassing clouds.8 mph73%29.98 "HgN/A
1:00 AM72 °FPassing clouds.8 mph73%30.01 "HgN/A
12:00 AM73 °FPassing clouds.10 mph74%30.01 "HgN/A
Weather by CustomWeather, © 2014

See weather overviewHow to use our weather pages